DW6536 Weather Reports


time (UTC)temp
F
wind
direction
speed
knots
gust
knots
rain 1hr
in
rain 24hr
in
rain mn
in
humidity
%
barometer
mb
20260904030019 81 132 1.7 0.0 0.00 0.00 0.00 75 1009.8
20260904024514 82 125 1.7 0.0 0.00 0.00 0.00 74 1009.7
20260904023012 82 151 2.6 0.0 0.00 0.00 0.00 73 1009.6
20260904021521 83 141 3.5 0.0 0.00 0.00 0.00 71 1009.2
20260904020011 83 155 2.6 0.0 0.00 0.00 0.00 70 1009.2
20260904014513 83 223 0.9 0.0 0.00 0.00 0.00 71 1009.0
20260904013011 84 158 1.7 0.0 0.00 0.00 0.00 70 1008.8
20260904011510 84 175 2.6 0.0 0.00 0.00 0.00 69 1008.6
20260904010009 85 133 2.6 0.0 0.00 0.00 0.00 68 1008.5
20260904004508 86 172 2.6 0.0 0.00 0.00 0.00 66 1008.6
20260904003008 87 157 1.7 0.0 0.00 0.00 0.00 67 1008.5
20260904001506 88 143 1.7 0.0 0.00 0.00 0.00 66 1008.3
20260904000006 88 131 1.7 0.0 0.00 0.00 0.00 65 1008.3
20260903234517 89 139 1.7 0.0 0.00 0.00 0.00 64 1008.3
20260903233005 89 77 2.6 0.0 0.00 0.00 0.00 64 1008.1
20260903231504 91 163 2.6 0.0 0.00 0.00 0.00 62 1007.9
20260903230009 91 147 3.5 0.0 0.00 0.00 0.00 62 1007.8
20260903224511 94 97 3.5 0.0 0.00 0.00 0.00 61 1007.6
20260903223003 96 127 2.6 0.0 0.00 0.00 0.00 56 1007.3
20260903221502 96 131 2.6 0.0 0.00 0.00 0.00 53 1007.2
20260903220006 97 114 2.6 0.0 0.00 0.00 0.00 51 1007.3
20260903214501 96 105 2.6 0.0 0.00 0.00 0.00 52 1007.3
20260903213103 97 105 2.6 0.0 0.00 0.00 0.00 50 1007.4
20260903211603 98 140 2.6 0.0 0.00 0.00 0.00 49 1007.5
20260903210112 100 160 1.7 0.0 0.00 0.00 0.00 47 1007.7
20260903204557 100 79 1.7 0.0 0.00 0.00 0.00 46 1007.8
20260903203053 100 153 1.7 0.0 0.00 0.00 0.00 46 1008.0
20260903201550 99 76 1.7 0.0 0.00 0.00 0.00 47 1008.3
20260903200045 97 68 1.7 0.0 0.00 0.00 0.00 49 1008.5
20260903194542 96 106 1.7 0.0 0.00 0.00 0.00 49 1008.6
20260903193041 96 115 1.7 0.0 0.00 0.00 0.00 51 1008.8
20260903191550 95 106 1.7 0.0 0.00 0.00 0.00 51 1009.0
20260903190035 95 173 1.7 0.0 0.00 0.00 0.00 52 1009.3
20260903184542 95 145 1.7 0.0 0.00 0.00 0.00 52 1009.6
20260903183036 95 259 2.6 0.0 0.00 0.00 0.00 53 1009.8
20260903181531 95 151 1.7 0.0 0.00 0.00 0.00 53 1010.1
20260903180043 95 160 1.7 0.0 0.00 0.00 0.00 53 1010.3
20260903174531 95 118 3.5 0.0 0.00 0.00 0.00 51 1010.5
20260903173031 96 255 2.6 0.0 0.00 0.00 0.00 51 1010.4
20260903171530 96 14 1.7 0.0 0.00 0.00 0.00 53 1010.5
20260903170024 93 129 2.6 0.0 0.00 0.00 0.00 56 1010.5
20260903164521 92 185 1.7 0.0 0.00 0.00 0.00 58 1010.6
20260903163018 91 245 1.7 0.0 0.00 0.00 0.00 60 1010.7
20260903161516 91 128 1.7 0.0 0.00 0.00 0.00 61 1010.7
20260903160015 89 112 1.7 0.0 0.00 0.00 0.00 65 1010.6
20260903154510 88 155 1.7 0.0 0.00 0.00 0.00 67 1010.7
20260903153007 87 94 1.7 0.0 0.00 0.00 0.00 68 1010.7
20260903151504 86 215 1.7 0.0 0.00 0.00 0.00 70 1010.6
20260903150003 86 221 1.7 0.0 0.00 0.00 0.00 71 1010.5
20260903144600 85 10 1.7 0.0 0.00 0.00 0.00 72 1010.5
20260903143109 84 208 1.7 0.0 0.00 0.00 0.00 75 1010.6
20260903141553 83 24 1.7 0.0 0.00 0.00 0.00 77 1010.5
20260903140052 82 162 1.7 0.0 0.00 0.00 0.00 79 1010.6
20260903134551 82 291 1.7 0.0 0.00 0.00 0.00 80 1010.6
20260903133056 81 189 1.7 0.0 0.00 0.00 0.00 82 1010.6
20260903131605 80 147 0.9 0.0 0.00 0.00 0.00 82 1010.6
20260903130054 80 214 0.9 0.0 0.00 0.00 0.00 83 1010.6
20260903124547 79 203 0.9 0.0 0.00 0.00 0.00 84 1010.5
20260903123049 79 214 0.9 0.0 0.00 0.00 0.00 84 1010.4
20260903121547 79 148 0.9 0.0 0.00 0.00 0.00 84 1010.3
20260903120046 79 165 1.7 0.0 0.00 0.00 0.00 85 1010.3
20260903114544 79 120 0.9 0.0 0.00 0.00 0.00 84 1010.2
20260903113045 80 85 0.9 0.0 0.00 0.00 0.00 84 1010.2
20260903111543 80 154 0.9 0.0 0.00 0.00 0.00 84 1010.1
20260903110041 80 333 1.7 0.0 0.00 0.00 0.00 84 1010.1
20260903104541 79 155 0.9 0.0 0.00 0.00 0.00 84 1010.0
20260903103041 79 193 0.9 0.0 0.00 0.00 0.00 84 1009.9
20260903101540 79 124 0.9 0.0 0.00 0.00 0.00 84 1009.8
20260903100040 79 132 0.9 0.0 0.00 0.00 0.00 84 1009.8
20260903094540 79 205 1.7 0.0 0.00 0.00 0.00 84 1009.9
20260903093042 80 112 0.9 0.0 0.00 0.00 0.00 83 1010.1
20260903091538 80 214 1.7 0.0 0.00 0.00 0.00 83 1010.2
20260903090034 80 105 0.9 0.0 0.00 0.00 0.00 83 1010.2
20260903084533 80 212 1.7 0.0 0.00 0.00 0.00 82 1010.3
20260903083043 80 216 1.7 0.0 0.00 0.00 0.00 82 1010.3
20260903081531 80 152 0.9 0.0 0.00 0.00 0.00 82 1010.3
20260903080031 80 154 0.9 0.0 0.00 0.00 0.00 81 1010.2
20260903074530 81 222 1.7 0.0 0.00 0.00 0.00 80 1010.2
20260903073032 81 193 0.9 0.0 0.00 0.00 0.00 79 1010.3
20260903071528 81 191 1.7 0.0 0.00 0.00 0.00 77 1010.4
20260903070027 81 124 1.7 0.0 0.00 0.00 0.00 76 1010.4
20260903064530 82 230 1.7 0.0 0.00 0.00 0.00 75 1010.5
20260903063026 82 206 0.9 0.0 0.00 0.00 0.00 73 1010.6
20260903061525 82 199 1.7 0.0 0.00 0.00 0.00 73 1010.6
20260903060023 82 154 1.7 0.0 0.00 0.00 0.00 72 1010.6
20260903054521 81 133 1.7 0.0 0.00 0.00 0.00 74 1010.6
20260903053019 80 145 0.9 0.0 0.00 0.00 0.00 76 1010.4
20260903051518 80 147 0.9 0.0 0.00 0.00 0.00 77 1010.5
20260903050015 80 147 0.9 0.0 0.00 0.00 0.00 77 1010.4
20260903044515 81 120 1.7 0.0 0.00 0.00 0.00 76 1010.3
20260903043014 81 112 1.7 0.0 0.00 0.00 0.00 75 1010.4
20260903041516 82 130 1.7 0.0 0.00 0.00 0.00 73 1010.3
20260903040015 83 129 0.9 0.0 0.00 0.00 0.00 70 1010.5
20260903034513 84 114 1.7 0.0 0.00 0.00 0.00 66 1010.5
20260903033015 86 128 1.7 0.0 0.00 0.00 0.00 61 1010.4
20260903031511 87 133 0.9 0.0 0.00 0.00 0.00 60 1010.1